{"data":{"norad_id":58646,"intl_designator":"2023-205B","name":"TIANMU-1 12","alt_names":[],"object_type":"PAYLOAD","status":"ACTIVE","operator":null,"country":"PRC","launch_date":"2023-12-25","launch_site_code":"JSC","launch_vehicle":null,"mission":null,"orbit_class":"UNKNOWN","rcs_meters":null,"size_class":null,"mass_kg":null,"dimensions":null,"purposes":["earth_obs"],"wikipedia_slug":null,"has_3d_model":false,"image_url":null,"decayed_at":null,"tle_current":{"epoch":"2026-05-25T03:37:50.358720Z","epoch_age_seconds":68882,"freshness":"FRESH","line1":"1 58646U 23205B   26145.15127730  .00005339  00000+0  20603-3 0  9998","line2":"2 58646  97.3451 166.8341 0009029  75.0183 285.2055 15.26671901133993","mean_motion":15.26671901,"eccentricity":0.0009029,"inclination_deg":97.3451,"raan_deg":166.8341,"arg_perigee_deg":75.0183,"mean_anomaly_deg":285.2055,"bstar":0.00020603,"rev_number":13399,"period_min":94.322820709333,"perigee_km":479.57219761303,"apogee_km":491.96704018544,"semimajor_km":6863.9066188992,"source":"CELESTRAK","updated_at":"2026-05-25T13:38:12.257517Z"}}}